#timestamp,LO_Frequency,Hit 
1601474415.5,286046999.9,N
1601474435.3,286047000.6,N
1601474455.2,286047002.5,N
1601474475.9,286046999.8,N
1601474495.7,286047002.6,N
1601474515.6,286047002.6,N
1601474535.4,286047002.3,N
1601474555.2,286047004.3,N
1601474575.1,286047004.1,N
1601474576.0,286047004.1,N
1601474595.8,286047003.2,N
1601474615.6,286047005.4,P
1601474635.5,286047003.6,N
1601474655.3,286047005.5,P
1601474675.1,286047005.6,P
1601474695.9,286047002.0,N
1601474715.7,286047003.9,N
1601474735.5,286047005.6,P
1601474755.4,286047002.8,P
1601474775.2,286047004.3,P
1601474795.1,286047004.4,P
1601474796.0,286047004.4,P
1601474815.8,286046999.0,P
1601474835.6,286046999.2,N
1601474855.5,286046998.1,N
1601474875.3,286047000.0,N
1601474895.1,286047000.5,N
1601474915.8,286047000.3,N
1601474935.7,286046999.7,N
1601474955.5,286047001.1,N
1601474975.3,286047000.1,N
1601474995.2,286047000.0,N
1601475015.0,286047002.4,N
1601475015.9,286047002.4,N
1601475035.7,286047001.1,N
1601475055.6,286047000.7,N
1601475075.4,286047002.7,N
1601475095.2,286047000.0,N
1601475115.1,286046999.9,N
1601475116.0,286046999.9,N
1601475135.8,286047000.9,N
1601475155.6,286047000.3,N
1601475175.5,286046998.3,N
1601475195.3,286046998.8,N
1601475215.1,286046999.6,N
1601475235.9,286046999.1,N
1601475255.7,286046999.1,N
1601475275.5,286046996.9,N
1601475295.4,286046999.5,N
1601475315.2,286046999.6,N
1601475335.0,286046998.7,N
1601475335.9,286046998.7,N
1601475355.8,286046999.4,N
1601475375.6,286046999.3,N
1601475395.4,286046999.5,N
1601475415.3,286046996.7,N
1601475435.1,286046997.4,N
1601475436.0,286046997.4,N
1601475455.8,286046999.2,N
1601475475.7,286046997.7,N
1601475495.5,286046997.4,N
1601475515.3,286046997.6,N
1601475535.2,286046997.1,N
1601475555.9,286046997.9,N
1601475575.7,286046996.8,N
1601475595.6,286046995.5,P
1601475615.4,286046997.3,N
1601475635.2,286046999.3,N
1601475655.1,286046999.6,N
1601475656.0,286046999.6,N
1601475675.8,286046997.4,N
1601475695.6,286046997.8,N
1601475715.5,286046995.1,P
1601475735.3,286046996.8,N
1601475755.1,286046997.3,N
1601475775.9,286046999.4,N
1601475795.7,286046996.9,N
1601475815.5,286046997.2,N
1601475835.4,286046997.1,N
1601475855.2,286046997.8,N
1601475875.0,286046995.0,P
1601475875.9,286046995.0,P
1601475895.8,286047000.8,N
1601475915.6,286046999.0,N
1601475935.4,286046998.7,N
1601475955.3,286046999.0,N
1601475975.1,286046998.7,N
1601475976.0,286046998.7,N
1601475995.8,286046996.6,N
1601476015.7,286046997.3,N
1601476035.5,286046998.9,N
1601476055.3,286046999.5,N
1601476075.2,286046999.2,N
1601476095.9,286046996.7,N
1601476115.7,286046997.4,N
1601476135.6,286046997.0,N
1601476155.4,286046994.9,P
1601476175.2,286046999.4,N
1601476195.1,286046999.3,N
1601476196.0,286046999.3,N
1601476215.8,286046999.0,N
1601476235.6,286046999.4,N
1601476255.5,286046997.1,N
1601476275.3,286046997.0,N
1601476295.1,286046997.1,N
1601476315.9,286046997.4,N
1601476335.7,286046997.0,N
1601476355.5,286046996.8,N
1601476375.4,286046996.7,N
1601476395.2,286046997.1,N
1601476415.0,286046995.4,P
1601476415.9,286046995.4,P
1601476435.8,286047001.2,N
1601476455.6,286046999.5,N
1601476475.4,286046996.8,N
1601476495.3,286046996.5,N
1601476515.1,286046999.1,N
1601476535.8,286046999.5,N
1601476555.7,286046996.9,N
1601476575.5,286046998.3,N
1601476595.3,286046999.5,N
1601476615.2,286046999.3,N
1601476635.9,286046999.4,N
1601476655.7,286046996.8,N
1601476675.6,286046997.2,N
1601476695.4,286046996.5,N
1601476715.2,286046997.7,N
1601476735.0,286046996.6,N
1601476736.0,286046996.6,N
1601476755.8,286046995.3,P
1601476775.6,286047000.8,N
1601476795.5,286047000.8,N
1601476815.3,286047001.0,N
1601476835.1,286047000.9,N
1601476855.9,286047000.4,N
1601476875.7,286047001.2,N
1601476895.5,286046998.7,N
1601476915.4,286047000.8,N
1601476935.2,286046999.1,N
1601476955.0,286046998.8,N
1601476955.9,286046998.8,N
1601476975.8,286046999.1,N
1601476995.6,286046999.3,N
1601477015.4,286046998.9,N
1601477035.2,286046998.8,N
1601477055.1,286046996.7,N
1601477056.0,286046996.7,N
1601477075.8,286046999.3,N
1601477095.7,286046998.6,N
1601477115.5,286046996.8,N
1601477135.3,286046999.5,N
1601477155.1,286046999.6,N
1601477175.9,286046999.1,N
1601477195.7,286046996.9,N
1601477215.5,286046999.6,N
1601477235.4,286046997.1,N
1601477255.2,286046999.2,N
1601477275.0,286046997.2,N
1601477275.9,286046997.2,N
1601477295.8,286046999.2,N
1601477315.6,286046999.2,N
1601477335.4,286046997.7,N
1601477355.3,286046996.5,N
1601477375.1,286046997.1,N
1601477395.8,286046996.6,N
1601477415.7,286046999.1,N
1601477435.5,286046997.4,N
1601477455.3,286046997.4,N
1601477475.2,286046994.9,P
1601477495.0,286046998.8,N
1601477495.9,286046998.8,N
1601477515.7,286046998.1,N
1601477535.6,286046998.1,N
1601477555.4,286046999.0,N
1601477575.2,286046999.4,N
1601477595.1,286046997.1,N
1601477596.0,286046997.1,N
1601477615.8,286046999.1,N
1601477635.6,286046997.3,N
1601477655.5,286046999.5,N
1601477675.3,286046999.1,N
1601477695.1,286046996.9,N
1601477715.9,286046996.5,N
1601477735.7,286046999.6,N
1601477755.5,286046999.1,N
1601477775.4,286046999.0,N
1601477795.2,286046998.9,N
1601477815.0,286046997.4,N
1601477815.9,286046997.4,N
1601477835.8,286046997.8,N
1601477855.6,286046999.5,N
1601477875.4,286046996.6,N
1601477895.3,286046997.1,N
1601477915.1,286046996.9,N
1601477916.0,286046996.9,N
1601477935.8,286046997.4,N
1601477955.7,286046996.5,P
1601477975.5,286047001.2,N
1601477995.3,286046998.6,N
